RH
82 72 66 58 58 60 56 55 57 58 56 54 52 50 47 44 42 32 27 28 19 21 20 13 9 11 13 34 47 46 44 51 33 35 44 50 76 66 69 74 84 72 95 98 95 69 95
88 87 79 67 62 61 58 58 62 60 58 57 57 56 53 49 44 35 31 29 21 23 20 12 10 12 16 36 40 41 42 51 29 32 43 54 76 86 87 81 73 75 96 93 98 87 99
96 95 92 93 82 74 66 65 63 59 56 55 59 57 57 53 48 38 34 31 24 26 20 11 12 13 16 31 38 42 44 46 28 36 43 49 56 73 83 66 98 100 100 98 78 90 78
95 95 94 96 94 89 80 73 70 63 59 55 58 56 59 56 52 42 37 33 27 29 21 12 12 14 15 33 41 36 54 44 30 44 46 55 75 64 60 50 64 87 69 74 64 65 79
95 98 96 96 94 95 93 83 73 66 63 59 57 56 57 57 54 44 39 34 29 31 21 12 13 16 19 29 40 26 44 37 38 51 73 48 48 59 57 63 51 98 70 66 85 79 91
96 95 98 98 98 96 96 95 84 70 62 60 57 54 54 57 50 45 40 36 30 32 20 11 15 17 19 22 24 35 51 45 54 67 55 51 36 42 52 55 61 67 90 97 97 94 83
99 100 98 99 100 98 95 97 96 92 76 67 60 55 54 52 51 46 38 33 30 32 20 11 14 19 21 22 21 29 56 66 43 59 62 70 49 49 54 68 84 98 98 99 87 100 76
100 97 96 96 96 98 97 96 96 94 88 78 75 64 58 56 53 44 37 31 36 29 21 13 15 17 26 30 32 25 42 57 48 75 72 85 60 69 58 85 78 91 91 94 84 73 78
84 93 96 95 94 94 96 96 95 95 94 84 80 75 61 60 56 45 38 39 40 37 24 14 16 20 27 31 41 42 33 53 73 92 80 99 76 73 97 97 86 95 95 86 100 74 41
42 51 76 83 94 96 93 96 97 97 96 82 72 76 70 60 53 49 37 41 44 38 22 17 18 29 27 36 34 38 39 60 47 56 70 100 96 95 96 85 98 59 90 90 64 87 23
25 31 37 43 69 66 80 90 90 89 88 83 59 50 69 69 51 49 42 44 42 32 22 19 20 21 14 22 23 24 44 96 63 47 63 78 86 74 66 75 72 100 96 92 85 96 90
16 21 25 30 35 38 51 58 70 77 91 73 45 27 40 34 33 53 46 44 40 32 27 27 18 20 14 23 24 29 64 76 84 45 46 94 90 87 88 88 95 78 80 73 69 66 80
11 12 15 23 26 30 32 29 38 61 66 91 78 24 22 27 14 41 37 41 40 35 36 26 19 17 13 24 32 29 44 47 48 58 64 72 95 95 76 93 69 50 55 32 27 54 57
4 9 10 12 18 24 28 28 26 25 57 86 64 89 58 10 17 26 37 36 33 38 34 33 20 20 16 22 36 40 50 45 43 48 69 55 96 98 79 78 90 41 72 90 75 88 62
3 4 6 10 10 11 18 22 24 24 22 29 89 25 68 81 72 64 40 25 23 40 40 42 30 21 18 19 29 28 40 40 42 43 63 44 78 100 90 75 61 66 77 57 65 86 47
2 2 3 4 9 9 8 9 15 16 18 18 26 62 14 4 54 24 29 27 20 48 43 42 36 24 18 18 28 41 25 26 36 47 99 85 65 85 97 65 54 55 100 78 51 31 16
1 1 2 2 4 7 8 6 6 8 9 13 17 23 11 4 10 31 43 30 18 45 44 42 38 32 19 18 32 52 24 38 42 76 100 95 66 91 90 79 36 45 48 49 32 24 18
6 2 1 2 2 3 5 6 5 4 6 6 15 18 8 4 20 31 40 22 19 46 46 38 38 33 17 24 90 47 26 87 94 63 83 70 50 59 68 25 35 33 29 50 27 28 17
22 5 2 1 2 2 3 4 5 4 4 5 7 11 8 6 11 37 30 11 20 41 39 34 32 24 20 48 100 55 44 85 99 93 23 26 21 25 40 35 41 25 18 13 11 9 10
35 7 2 1 1 2 2 2 3 3 3 3 4 5 6 5 9 21 28 6 10 38 35 35 28 24 21 29 90 91 31 44 35 31 21 22 21 22 21 15 13 18 42 34 12 10 12
40 29 7 1 1 1 2 2 2 2 2 3 3 4 6 12 11 14 19 4 16 36 31 35 22 15 16 21 58 33 18 16 11 11 12 11 10 11 12 12 12 21 77 33 31 15 13
47 41 34 10 1 1 1 2 2 2 2 3 3 4 4 8 8 6 10 4 15 35 31 37 22 14 16 21 16 14 12 10 11 13 9 8 9 10 8 10 11 9 33 16 18 27 26
49 38 31 30 12 1 1 1 2 2 2 2 2 4 4 4 6 10 9 6 13 35 32 41 23 14 19 19 18 13 10 12 10 12 9 16 22 18 12 11 8 9 16 23 32 35 38
58 36 28 33 30 5 1 1 1 2 2 2 2 4 5 4 6 8 15 17 17 34 31 44 36 18 18 18 16 13 12 11 8 74 32 22 28 27 18 9 10 14 18 26 34 34 32
33 35 43 40 30 18 2 2 1 1 2 2 2 3 4 4 5 3 9 36 31 37 35 41 29 25 29 20 32 55 13 7 7 40 41 38 49 26 18 11 13 19 23 28 30 29 28
50 66 50 31 23 15 3 2 2 1 2 2 2 3 4 6 4 10 5 39 44 41 51 47 26 78 37 25 30 22 10 8 8 21 30 24 23 24 18 16 16 23 23 21 24 20 18
79 53 54 100 89 98 53 4 2 2 2 2 2 2 4 36 28 58 22 15 44 56 43 43 65 66 26 20 14 14 9 8 8 15 30 28 22 21 20 17 18 18 20 22 18 10 9
85 53 82 100 100 100 100 50 2 2 2 3 3 2 3 32 77 62 68 58 70 48 32 40 76 94 58 30 48 14 11 9 7 10 12 19 24 25 24 20 14 10 8 8 9 9 9
90 52 59 93 100 97 68 22 2 2 2 3 14 8 6 61 100 91 75 45 44 41 30 43 81 92 46 28 19 14 16 12 12 10 10 9 9 9 10 10 10 9 8 8 8 9 9
Wind_Speed
54 54 54 53 52 50 49 47 45 41 41 38 37 36 34 33 29 24 23 25 28 31 31 31 34 34 28 24 17 13 14 15 9 8 6 5 3 7 11 15 23 27 14 17 11 20 8
59 58 57 54 53 51 51 50 46 43 42 41 38 35 34 32 30 24 22 25 28 30 30 29 31 29 23 19 12 16 16 14 7 9 6 5 9 16 15 19 22 19 14 16 16 18 13
63 62 61 56 56 55 53 52 49 46 43 42 39 35 34 32 29 24 22 24 28 29 29 28 28 27 24 14 13 16 16 11 7 8 7 9 15 9 15 21 22 18 22 14 11 20 25
66 64 63 59 57 57 55 53 50 46 44 42 39 35 33 30 29 26 24 25 28 29 27 25 27 24 22 15 16 13 11 6 7 8 7 12 7 11 9 18 25 14 20 23 22 22 19
69 67 63 60 59 56 54 52 50 46 45 42 38 36 33 30 28 26 25 26 28 28 25 23 25 21 18 15 9 7 8 6 11 7 7 3 11 15 10 11 20 12 21 17 8 19 9
70 68 66 63 61 59 56 53 51 48 45 42 39 36 32 30 27 26 25 27 28 28 23 22 22 21 16 11 5 6 4 7 11 2 3 2 7 11 14 13 19 20 13 9 9 7 13
71 69 68 66 64 62 60 57 54 51 48 44 40 37 33 30 27 26 26 28 26 24 23 21 20 18 14 9 9 8 6 4 6 9 6 6 10 10 13 18 23 16 9 11 16 2 4
71 71 68 67 65 63 60 59 56 54 51 45 42 40 35 32 29 27 28 29 26 27 22 18 18 18 14 14 13 11 7 1 2 12 9 8 14 17 15 10 14 9 12 8 11 5 7
72 70 69 68 67 65 62 59 57 55 51 47 42 41 37 34 32 29 30 32 28 27 22 19 18 19 18 15 16 14 8 1 2 11 12 6 7 9 12 20 14 10 8 19 10 6 9
71 69 68 68 67 65 63 59 58 56 51 49 44 42 39 36 33 31 32 29 30 27 26 20 17 16 15 14 14 17 6 5 5 3 12 10 14 8 18 23 14 8 8 11 15 9 9
78 74 72 68 66 63 62 60 57 54 53 50 46 43 43 38 35 31 31 30 29 29 26 23 15 16 14 11 18 15 11 11 11 11 6 6 12 17 13 22 16 3 6 3 10 7 9
81 78 76 73 70 65 61 59 56 53 53 51 47 44 42 40 38 37 36 34 33 31 26 23 16 15 12 12 13 20 13 10 14 14 10 2 12 11 15 16 15 6 5 7 14 17 19
87 83 80 77 74 70 65 60 56 54 50 51 52 43 41 41 37 38 35 36 37 36 27 24 17 14 13 12 15 16 12 20 19 16 5 10 6 3 3 7 5 5 10 14 15 18 15
94 89 85 81 78 74 69 64 60 56 52 51 46 48 43 38 39 33 35 40 39 32 23 24 20 15 12 12 13 10 11 15 17 16 11 11 8 9 11 10 6 12 13 15 17 15 18
101 96 91 87 81 76 72 68 65 61 57 52 51 48 45 44 41 41 42 43 37 28 22 21 22 17 14 15 13 9 9 12 19 20 20 19 21 22 14 18 15 15 19 18 17 12 9
109 103 96 92 89 82 76 70 67 65 62 58 53 50 44 46 43 43 42 39 37 26 27 24 23 15 16 16 13 12 11 9 15 20 19 21 23 20 23 15 14 14 12 14 17 13 9
101 107 103 97 93 88 82 75 70 68 64 62 58 55 48 50 48 49 44 39 34 29 30 26 22 17 18 18 15 15 12 10 14 17 19 19 20 18 22 12 14 15 18 19 18 17 13
67 95 98 102 97 94 89 82 75 71 68 66 61 58 54 54 53 50 42 41 32 34 34 29 25 23 21 16 12 14 13 13 17 20 20 19 23 18 9 11 11 15 15 17 18 15 18
45 64 88 91 101 98 94 88 80 74 70 67 62 58 58 56 52 48 46 43 36 38 37 33 25 25 26 23 24 19 19 18 22 21 16 20 21 16 14 15 15 17 18 19 19 17 14
37 41 65 84 89 99 97 92 85 78 74 70 67 64 60 57 49 51 51 42 39 40 40 34 27 27 31 30 28 25 25 24 19 20 20 20 20 18 19 19 21 19 18 19 22 22 13
34 28 39 70 90 91 99 96 89 84 78 76 72 62 58 55 54 56 57 46 43 44 43 36 32 35 33 30 32 29 27 24 19 17 19 22 23 22 22 21 26 21 22 19 18 20 18
35 30 29 42 79 92 97 99 92 87 85 83 74 59 55 52 54 56 58 49 46 46 43 37 35 37 36 32 29 26 25 24 21 23 25 27 27 28 26 25 26 25 21 20 17 15 17
32 30 30 38 50 84 95 94 95 93 92 86 73 64 55 55 57 57 55 45 43 46 41 37 34 36 38 34 31 29 27 25 23 23 24 25 26 27 25 25 24 23 15 21 17 18 19
33 32 33 42 49 63 93 99 94 97 94 84 74 69 61 59 59 55 49 44 46 48 45 41 37 38 41 35 32 29 25 23 20 20 23 23 26 26 23 24 24 19 19 17 18 20 22
31 37 40 42 48 54 76 97 103 100 94 85 77 72 68 67 60 58 50 44 49 49 46 41 42 43 41 35 33 30 26 23 21 23 22 23 23 24 24 24 21 20 19 16 20 23 24
37 38 34 35 40 48 64 90 102 100 91 85 83 79 74 66 59 56 56 48 52 51 50 47 47 40 43 40 36 31 24 20 22 21 22 22 21 24 22 22 22 22 21 19 23 26 22
35 29 30 31 40 36 42 79 95 102 91 88 86 81 73 56 59 45 56 51 50 51 49 46 42 46 46 40 34 30 24 22 21 18 20 20 18 19 20 21 20 20 19 22 22 22 20
34 27 47 46 40 53 45 57 93 101 93 89 85 78 74 55 43 47 47 52 51 51 51 49 48 52 48 40 38 33 26 21 18 16 16 16 17 17 17 17 18 17 17 19 21 22 25
33 29 34 53 39 37 43 64 93 99 93 84 81 76 73 43 33 38 43 51 46 49 54 47 43 37 39 42 39 33 28 24 21 18 17 16 15 15 17 17 18 20 21 21 23 25 29
Wind_Direction
254 254 253 253 252 253 255 257 258 260 262 263 265 269 274 277 282 288 293 300 298 306 318 329 333 335 333 323 318 294 304 317 297 293 285 234 203 180 158 185 194 184 183 193 277 238 159
250 253 252 253 254 252 254 255 255 256 258 261 263 266 270 274 279 283 288 296 296 303 316 329 332 333 331 321 313 293 303 310 287 294 268 250 235 199 197 186 179 184 208 197 223 261 284
255 251 247 249 255 255 255 254 253 254 255 259 260 262 266 271 274 276 285 290 293 302 313 328 332 332 334 322 320 302 298 303 296 290 270 253 281 220 186 181 159 179 196 198 205 237 248
253 253 252 250 251 254 254 256 254 253 255 255 258 259 262 266 271 275 280 283 290 299 312 326 329 329 338 318 320 320 296 304 314 287 277 276 225 201 201 188 183 170 195 214 234 244 259
253 253 252 252 253 251 253 255 255 253 253 254 255 257 258 260 265 270 275 276 283 295 309 322 327 328 335 322 311 345 330 322 318 319 324 249 196 193 212 201 199 189 198 209 235 237 214
250 252 252 250 250 250 251 252 254 252 251 253 253 253 255 257 259 267 269 270 279 290 305 317 325 325 329 319 304 341 351 346 348 348 174 144 178 181 184 203 192 207 210 160 56 212 169
249 248 249 250 249 249 250 251 251 251 251 250 250 251 251 253 256 261 263 266 276 289 295 313 319 324 315 314 312 320 358 354 315 316 236 198 165 193 187 202 192 183 163 176 109 46 322
248 249 248 249 249 249 249 249 248 248 249 249 248 248 248 249 252 251 257 261 271 274 289 303 311 318 302 290 292 304 321 71 294 299 289 210 189 200 196 194 141 121 143 124 144 134 247
251 249 249 247 247 246 245 245 246 247 246 247 246 245 244 244 246 247 253 259 267 275 285 295 304 309 301 286 278 279 296 45 94 306 279 212 223 230 169 150 138 138 157 147 171 223 206
249 250 247 248 247 246 244 241 243 245 243 245 243 242 240 239 243 245 249 261 267 273 277 283 292 304 302 273 270 253 214 251 277 260 293 277 209 190 163 155 145 183 179 188 182 176 191
248 247 248 247 245 243 245 244 242 241 242 241 240 240 238 236 241 243 250 256 260 265 272 276 292 303 297 266 245 230 208 182 270 281 273 285 206 189 199 201 174 207 201 159 202 221 206
248 246 245 245 245 243 241 240 238 237 235 234 236 237 236 237 237 237 241 249 254 259 264 273 286 301 292 250 235 221 213 205 226 267 238 211 171 150 162 171 189 142 118 187 209 215 229
245 244 245 244 242 242 241 239 237 236 234 235 230 235 234 235 234 235 239 246 251 253 259 273 286 301 276 236 223 230 202 205 211 232 243 230 205 345 134 193 159 175 189 206 214 229 228
244 242 242 241 241 239 238 238 237 235 233 231 235 232 229 232 231 229 233 242 245 248 251 259 276 284 253 231 211 218 206 196 203 207 222 202 202 214 154 162 218 223 197 221 239 239 232
244 240 238 239 238 238 236 234 236 236 234 229 228 227 230 229 228 230 231 235 238 246 242 250 264 270 232 227 208 219 219 197 205 198 221 218 203 221 211 204 217 246 209 232 242 258 257
245 241 236 235 236 235 235 233 232 233 233 230 226 224 223 223 221 225 227 226 235 234 233 236 249 248 227 226 221 235 224 210 188 187 217 229 237 256 208 202 213 228 233 239 254 264 238
243 243 237 232 232 233 232 231 229 229 229 230 226 222 219 223 218 220 219 220 229 225 232 233 247 232 228 217 221 227 225 200 202 205 229 244 248 265 237 219 211 219 230 241 248 255 256
244 236 238 230 228 228 230 230 227 226 226 227 227 223 219 221 217 217 215 220 219 217 226 233 230 228 217 203 227 234 198 190 205 228 245 243 239 240 216 219 237 245 248 246 249 250 263
257 236 229 228 224 224 224 226 225 223 223 225 224 222 221 220 213 210 213 221 214 218 225 229 226 222 213 192 216 222 203 209 214 232 223 227 236 234 248 250 245 240 251 257 262 252 255
253 243 226 218 217 218 219 221 220 219 219 220 221 220 218 218 212 206 212 218 214 216 225 225 219 207 222 197 205 217 211 214 224 224 229 231 237 244 242 244 246 237 245 252 253 261 266
239 237 226 215 209 212 213 214 215 214 214 215 218 216 217 214 208 203 208 210 208 213 222 222 210 207 215 205 210 217 218 227 227 223 232 239 243 243 245 242 253 247 259 265 256 253 248
223 229 226 218 209 206 209 207 209 210 208 210 215 211 211 210 213 210 211 210 204 211 219 220 216 207 211 211 214 219 224 228 235 242 243 245 248 249 248 250 255 260 258 277 269 261 264
218 223 224 217 213 207 202 203 203 203 204 207 208 205 206 210 209 211 211 212 206 210 215 219 216 207 213 214 216 220 224 235 246 249 247 248 250 250 249 247 246 254 258 248 246 248 259
209 215 222 217 211 208 203 197 198 198 201 205 206 202 202 203 207 205 212 208 206 209 211 212 212 212 215 216 217 224 230 243 249 244 257 252 248 246 246 245 247 243 242 243 247 249 251
205 216 218 216 219 208 203 199 192 195 195 197 197 198 202 204 205 208 205 205 202 205 210 211 213 210 216 216 217 223 231 242 243 244 251 255 249 248 244 243 243 242 232 239 248 252 255
210 214 216 221 219 204 198 201 194 190 192 190 193 195 200 204 203 208 211 206 200 206 206 210 212 205 216 216 215 219 230 242 246 247 252 257 249 247 245 243 243 236 246 246 250 255 262
202 206 184 174 162 173 192 198 198 187 186 189 191 194 197 198 205 204 205 206 203 204 211 215 207 212 213 217 217 220 225 233 242 237 241 247 245 241 241 243 243 245 242 249 255 265 272
194 197 171 168 175 177 182 193 194 185 181 188 191 190 195 197 201 208 203 200 202 206 212 213 212 213 212 213 217 220 222 227 231 222 234 241 244 242 242 243 242 247 249 258 264 275 280
186 188 181 184 186 193 193 195 191 183 179 186 192 191 194 188 181 202 203 200 207 216 216 216 209 225 220 216 217 220 221 224 227 224 229 238 241 243 248 250 255 259 266 270 279 288 287